sat.trackr.live / text

‹ back to catalog

STARLINK-35018

NORAD 65288 · 2025-184R

PAYLOAD ACTIVE UNKNOWN

§ Identity

Operator
Country
US
Launch date
2025-08-22
Launch site
AFWTR
Launch vehicle
Mass (kg)
RCS (m²)

Purposes: comms

External: N2YO · Heavens-Above · Gunter

§ Orbital elements

Epoch: 2026-09-20T13:43:58.906848Z

Period
93.91 min
Inclination
97.2847°
Eccentricity
0.0000946
Mean motion
15.33438775 rev/d
Perigee alt
464.9 km
Apogee alt
466.2 km
Semi-major
6,843.7 km
B*
1.5890e-4
RAAN
311.5142°
Arg perigee
83.4244°
Mean anomaly
276.7106°
Rev number
6,073

§ Raw data

STARLINK-350181 65288U 25184R   26263.57220957  .00005057  00000+0  15890-3 0  99972 65288  97.2847 311.5142 0000946  83.4244 276.7106 15.33438775 60730

JSON: /api/v1/satellites/65288 · /tle

For live sub-satellite position, see the globe view (requires WebGL).

§ Visibility from observer

Set your observer location to see the next 7 days of passes ≥ 10°. The values pass through the URL so the page stays shareable.

No JS? Fill the form by hand. The geolocation button needs JavaScript.